Location: *
(46.3500°N, 10.9000°E)
Time: 21:53:22
(UTC+00:00)

Explorer 7 - Pass Details

Date: 28 April 2021
Orbit: 484 x 677 km, 50.3° (Epoch: 13 May)

Event Time Altitude Azimuth Distance (km) Brightness Sun altitude
Rises 21:10:25 0° 293° (WNW) 2,695 11.2 -23.2°
Reaches altitude 10° 21:12:35 10° 291° (WNW) 1,832 10.2 -23.4°
Enters shadow 21:16:20 65° 252° (WSW) 633 7.0 -23.7°
Maximum altitude 21:16:45 72° 207° (SSW) 611 - -23.7°
Drops below altitude 10° 21:21:11 10° 124° (SE) 1,948 - -24.1°
Sets 21:23:33 0° 122° (ESE) 2,883 - -24.3°
